Location: Berlise
(49.6641°N, 4.1077°E)
Time: 23:59:37
(UTC+00:00)

USA 305 - Pass Details

Date: 27 January 2021
Orbit: 565 x 578 km, 54.0° (Epoch: 28 February)

Event Time Altitude Azimuth Distance (km) Brightness Sun altitude
Exits shadow 04:50:18 47° 162° (SSE) 750 3.5 -24.5°
Maximum altitude 04:50:39 49° 144° (SE) 735 3.6 -24.5°
Drops below altitude 10° 04:54:44 10° 70° (ENE) 1,863 6.4 -23.8°
Sets 04:57:02 0° 65° (ENE) 2,763 7.4 -23.4°
